Date String (YYYY-MM-DD hh:mm:ss) UTC,Instrument flags,Ambient pressure (hPa),Sample flow (lpm),Bypass flow (lpm),Sample temperature (°C),Ambient temperature (°C),ASC tube jacket temperature (°C),LED temperature (°C),Box temperature (°C),Sample RH (%),Span deviation,Mass concentration (μg/m³),Mass concentration (μg/m³),Mass concentration (μg/m³)
DateTimeUTC,F1_M11,P_M11,Q1_M11,Q2_M11,T1_M11,T2_M11,T3_M11,T4_M11,T5_M11,U1_M11,ZSPAN_M11,X2_M11,X0_M11,X1_M11
2023-03-06 12:00:00,,0822.9,5.01,0.00,21.7,20.2,00.0,30.5,23.3,09.2,0000.0,0002.17,0005.11,0001.32
2023-03-06 12:01:00,,0822.9,5.00,0.00,21.8,21.4,00.0,30.5,23.6,09.1,0000.0,0002.21,0005.23,0001.32
2023-03-06 12:02:00,,0822.9,4.99,0.00,21.9,22.4,00.0,30.5,23.8,09.0,0000.0,0002.17,0005.12,0001.31
2023-03-06 12:03:00,,0822.9,5.00,0.00,22.0,22.3,00.0,30.5,23.8,09.0,0000.0,0002.10,0004.98,0001.29
2023-03-06 12:04:00,,0822.9,4.97,0.00,22.0,21.8,00.0,30.5,23.7,09.0,0000.0,0002.08,0004.95,0001.28
2023-03-06 12:05:00,,0823.0,5.00,0.00,21.9,21.3,00.0,30.6,23.6,09.0,0000.0,0002.08,0004.92,0001.29
2023-03-06 12:06:00,,0823.0,4.99,0.00,21.9,20.8,00.0,30.6,23.5,09.1,0000.0,0002.14,0003.91,0001.31
2023-03-06 12:07:00,,0823.0,5.00,0.00,21.9,20.5,00.0,30.6,23.4,09.1,0000.0,0002.17,0003.91,0001.33
2023-03-06 12:08:00,,0822.9,5.00,0.00,21.9,20.3,00.0,30.6,23.4,09.1,0000.0,0002.11,0003.80,0001.33
2023-03-06 12:09:00,,0823.0,5.00,0.00,21.8,20.1,00.0,30.6,23.4,09.1,0000.0,0002.12,0003.88,0001.32
2023-03-06 12:10:00,,0822.9,4.99,0.00,21.8,20.0,00.0,30.6,23.3,09.1,0000.0,0002.11,0004.43,0001.33
2023-03-06 12:11:00,,0823.0,5.00,0.00,21.8,19.9,00.0,30.5,23.3,09.1,0000.0,0002.16,0004.60,0001.34
2023-03-06 12:12:00,,0823.0,5.01,0.00,21.7,20.0,00.0,30.5,23.3,09.1,0000.0,0002.13,0004.53,0001.33
2023-03-06 12:13:00,,0823.0,4.98,0.00,21.8,21.2,00.0,30.5,23.5,09.1,0000.0,0002.10,0004.43,0001.33
2023-03-06 12:14:00,,0823.0,4.98,0.00,21.9,22.2,00.0,30.5,23.8,08.9,0000.0,0002.10,0004.40,0001.35
2023-03-06 12:15:00,,0822.9,5.00,0.00,22.0,23.0,00.0,30.6,24.0,08.9,0000.0,0002.17,0004.58,0001.36
2023-03-06 12:16:00,,0822.9,5.02,0.00,22.1,22.6,00.0,30.6,23.9,08.8,0000.0,0002.24,0004.85,0001.38
2023-03-06 12:17:00,,0822.9,5.00,0.00,22.1,21.9,00.0,30.6,23.8,08.9,0000.0,0002.26,0005.03,0001.37
2023-03-06 12:18:00,,0822.9,4.97,0.00,22.0,21.4,00.0,30.7,23.7,08.9,0000.0,0002.24,0005.07,0001.36
2023-03-06 12:19:00,,0823.0,5.00,0.00,22.0,21.0,00.0,30.7,23.6,08.9,0000.0,0002.26,0005.10,0001.36
2023-03-06 12:20:00,,0822.9,5.01,0.00,22.0,20.7,00.0,30.7,23.6,08.9,0000.0,0002.23,0004.93,0001.37
2023-03-06 12:21:00,,0822.9,5.00,0.00,22.0,20.4,00.0,30.7,23.6,08.9,0000.0,0002.19,0004.39,0001.35
2023-03-06 12:22:00,,0823.1,4.99,0.00,21.9,20.3,00.0,30.7,23.5,09.0,0000.0,0002.15,0004.13,0001.33
2023-03-06 12:23:00,,0823.1,5.00,0.00,21.9,20.1,00.0,30.6,23.5,09.0,0000.0,0002.10,0004.01,0001.33
2023-03-06 12:24:00,,0823.0,5.00,0.00,21.9,20.0,00.0,30.6,23.4,09.0,0000.0,0002.10,0004.01,0001.33
2023-03-06 12:25:00,,0823.1,5.00,0.00,21.8,19.9,00.0,30.6,23.4,09.0,0000.0,0002.09,0004.13,0001.32
2023-03-06 12:26:00,,0822.9,5.00,0.00,21.8,19.8,00.0,30.6,23.3,09.0,0000.0,0002.08,0004.12,0001.32
2023-03-06 12:27:00,,0822.9,5.01,0.00,21.8,20.6,00.0,30.6,23.5,09.0,0000.0,0002.03,0003.86,0001.32
2023-03-06 12:28:00,,0823.0,4.98,0.00,21.9,21.8,00.0,30.6,23.7,08.9,0000.0,0002.04,0003.75,0001.32
2023-03-06 12:29:00,,0823.1,4.99,0.00,22.0,22.7,00.0,30.6,23.9,08.9,0000.0,0002.05,0003.65,0001.33
2023-03-06 12:30:00,,0823.0,5.00,0.00,22.1,22.8,00.0,30.7,24.0,08.8,0000.0,0002.11,0003.85,0001.34
2023-03-06 12:31:00,,0823.1,5.03,0.00,22.1,22.2,00.0,30.7,23.9,08.8,0000.0,0002.12,0003.89,0001.34
2023-03-06 12:32:00,,0823.1,4.99,0.00,22.1,21.6,00.0,30.7,23.8,08.8,0000.0,0002.11,0003.86,0001.34
2023-03-06 12:33:00,,0822.9,5.00,0.00,22.1,21.2,00.0,30.7,23.7,08.8,0000.0,0002.10,0003.81,0001.35
2023-03-06 12:34:00,,0823.0,5.00,0.00,22.0,20.8,00.0,30.7,23.6,08.8,0000.0,0002.14,0003.91,0001.37
2023-03-06 12:35:00,,0823.0,5.00,0.00,22.0,20.5,00.0,30.7,23.6,08.7,0000.0,0002.19,0004.01,0001.38
2023-03-06 12:36:00,,0823.0,5.00,0.00,22.0,20.3,00.0,30.7,23.6,08.7,0000.0,0002.21,0004.28,0001.39
2023-03-06 12:37:00,,0823.0,5.00,0.00,21.9,20.2,00.0,30.7,23.5,08.8,0000.0,0002.20,0004.29,0001.39
2023-03-06 12:38:00,,0823.1,5.00,0.00,21.9,20.0,00.0,30.7,23.4,08.7,0000.0,0002.20,0004.69,0001.38
2023-03-06 12:39:00,,0823.0,5.00,0.00,21.9,19.9,00.0,30.7,23.4,08.6,0000.0,0002.22,0006.25,0001.38
2023-03-06 12:40:00,,0823.0,5.00,0.00,21.8,19.9,00.0,30.6,23.4,08.7,0000.0,0002.19,0006.85,0001.37
2023-03-06 12:41:00,,0823.1,5.01,0.00,21.8,20.2,00.0,30.6,23.4,08.7,0000.0,0002.15,0006.73,0001.37
2023-03-06 12:42:00,,0823.1,5.01,0.00,21.9,21.4,00.0,30.6,23.7,08.7,0000.0,0002.15,0006.72,0001.37
2023-03-06 12:43:00,,0823.1,5.00,0.00,22.0,22.5,00.0,30.6,23.9,08.6,0000.0,0002.20,0006.80,0001.39
2023-03-06 12:44:00,,0823.1,4.98,0.00,22.1,22.4,00.0,30.7,23.9,08.6,0000.0,0002.19,0006.96,0001.38
2023-03-06 12:45:00,,0823.1,5.00,0.00,22.1,21.9,00.0,30.7,23.9,08.6,0000.0,0002.20,0007.77,0001.37
2023-03-06 12:46:00,,0823.1,5.01,0.00,22.1,21.3,00.0,30.7,23.7,08.6,0000.0,0002.18,0007.75,0001.36
2023-03-06 12:47:00,,0823.1,5.01,0.00,22.0,20.9,00.0,30.7,23.6,08.5,0000.0,0002.13,0007.56,0001.35
2023-03-06 12:48:00,,0823.1,5.00,0.00,22.0,20.7,00.0,30.7,23.5,08.6,0000.0,0002.11,0007.48,0001.35
2023-03-06 12:49:00,,0823.1,5.01,0.00,22.0,20.4,00.0,30.7,23.5,08.6,0000.0,0002.12,0007.28,0001.36
2023-03-06 12:50:00,,0823.1,5.00,0.00,21.9,20.3,00.0,30.7,23.5,08.6,0000.0,0002.11,0005.97,0001.37
2023-03-06 12:51:00,,0823.1,5.01,0.00,21.9,20.1,00.0,30.7,23.5,08.6,0000.0,0002.05,0005.03,0001.37
2023-03-06 12:52:00,,0823.1,5.01,0.00,21.9,20.0,00.0,30.7,23.4,08.6,0000.0,0002.02,0004.94,0001.35
2023-03-06 12:53:00,,0823.1,5.00,0.00,21.8,20.1,00.0,30.6,23.4,08.6,0000.0,0002.01,0004.95,0001.34
2023-03-06 12:54:00,,0823.1,5.01,0.00,21.9,21.1,00.0,30.6,23.6,08.5,0000.0,0001.95,0004.90,0001.32
2023-03-06 12:55:00,,0823.1,5.01,0.00,22.0,22.3,00.0,30.6,23.9,08.5,0000.0,0001.94,0004.74,0001.30
2023-03-06 12:56:00,,0823.2,4.99,0.00,22.1,22.6,00.0,30.7,24.0,08.6,0000.0,0001.91,0003.68,0001.29
2023-03-06 12:57:00,,0823.2,4.98,0.00,22.1,22.1,00.0,30.7,23.9,08.5,0000.0,0001.90,0004.87,0001.30
2023-03-06 12:58:00,,0823.1,5.03,0.00,22.1,21.6,00.0,30.7,23.8,08.6,0000.0,0001.93,0004.96,0001.30
2023-03-06 12:59:00,,0823.1,5.00,0.00,22.1,21.1,00.0,30.7,23.7,08.5,0000.0,0001.97,0005.40,0001.29
